Location: Unspecified
(0.0000°N, 0.0000°E)
Time: 07:41:46
(UTC+00:00)

Courier 1B - Pass Details

Date: 03 October 2023
Orbit: 962 x 1208 km, 28.3° (Epoch: 06 December)

Event Time Altitude Azimuth Distance (km) Brightness Sun altitude
Rises 17:52:43 0° 305° (NW) 4,099 11.7 -0.9°
Reaches altitude 10° 17:55:37 10° 307° (NW) 3,127 11.0 -1.6°
Maximum altitude 18:03:23 70° 30° (NNE) 1,236 8.0 -3.6°
Drops below altitude 10° 18:10:50 10° 113° (ESE) 3,004 9.5 -5.4°
Enters shadow 18:13:01 - 115° (ESE) 3,741 10.0 -6.0°
Sets 18:13:34 0° 115° (ESE) 3,929 - -6.1°
